GW5351 Weather Reports


Display with metric or nautical units.
time (UTC)temp
F
wind
direction
speed
MPH
gust
MPH
rain 1hr
in
rain 24hr
in
rain mn
in
humidity
%
barometer
mb
20260905060112 75 216 0.0 0.0 0.00 0.00 0.00 98 1014.5
20260905055610 75 216 0.0 0.0 0.00 0.00 0.00 98 1014.4
20260905055105 76 216 0.0 0.0 0.00 0.00 0.00 98 1014.4
20260905054601 76 216 0.0 0.0 0.00 0.00 0.00 98 1014.4
20260905054056 76 216 0.0 0.0 0.00 0.00 0.00 98 1014.5
20260905053555 76 216 0.0 0.0 0.00 0.00 0.00 98 1014.4
20260905053052 76 216 0.0 0.0 0.00 0.00 0.00 98 1014.4
20260905052550 76 216 0.0 0.0 0.00 0.00 0.00 98 1014.6
20260905052045 76 216 0.0 0.0 0.00 0.00 0.00 97 1014.5
20260905051541 76 216 0.0 0.0 0.00 0.00 0.00 97 1014.6
20260905051038 76 216 0.0 0.0 0.00 0.00 0.00 97 1014.6
20260905050533 76 216 0.0 0.0 0.00 0.00 0.00 97 1014.7
20260905050031 76 216 0.0 0.0 0.00 0.77 0.77 97 1014.7
20260905045525 77 216 0.0 0.0 0.00 0.77 0.77 97 1014.8
20260905045020 76 216 0.0 0.0 0.00 0.77 0.77 96 1014.7
20260905044521 76 216 0.0 0.0 0.00 0.77 0.77 96 1014.6
20260905044020 77 216 0.0 0.0 0.00 0.77 0.77 96 1014.6
20260905043520 77 216 0.0 0.0 0.00 0.77 0.77 96 1014.5
20260905043015 77 216 0.0 0.0 0.00 0.77 0.77 96 1014.5
20260905042508 77 216 0.0 0.0 0.00 0.77 0.77 96 1014.7
20260905042004 77 216 0.0 0.0 0.00 0.77 0.77 96 1014.5
20260905041500 77 216 0.0 0.0 0.00 0.77 0.77 96 1014.5
20260905040955 77 216 0.0 0.0 0.00 0.77 0.77 96 1014.6
20260905040454 77 216 0.0 0.0 0.00 0.77 0.77 95 1014.8
20260905035953 77 216 0.0 0.0 0.00 0.77 0.77 95 1014.8
20260905035448 77 216 0.0 0.0 0.00 0.77 0.77 95 1014.7
20260905034946 77 216 0.0 0.0 0.00 0.77 0.77 95 1014.8
20260905034441 77 216 0.0 0.0 0.00 0.77 0.77 94 1014.6
20260905033940 77 216 0.0 0.0 0.00 0.77 0.77 94 1014.8
20260905033440 78 217 0.0 0.0 0.00 0.77 0.77 94 1014.9
20260905032934 78 216 0.0 0.0 0.00 0.77 0.77 94 1014.8
20260905032430 78 216 0.0 0.0 0.00 0.77 0.77 94 1014.7
20260905031924 78 216 0.0 0.0 0.00 0.77 0.77 94 1014.8
20260905031421 78 216 0.0 0.0 0.00 0.77 0.77 93 1014.8
20260905030916 78 216 0.0 0.0 0.00 0.77 0.77 92 1015.0
20260905030411 78 216 0.0 0.0 0.00 0.77 0.77 92 1014.8
20260905025910 78 216 0.0 0.0 0.00 0.77 0.77 92 1014.8
20260905025405 79 216 0.0 0.0 0.00 0.77 0.77 92 1014.7
20260905024902 79 216 0.0 0.0 0.00 0.77 0.77 90 1014.8
20260905024356 79 216 0.0 0.0 0.00 0.77 0.77 90 1014.7
20260905023851 79 216 0.0 0.0 0.00 0.77 0.77 90 1014.6
20260905023342 79 216 0.0 0.0 0.00 0.77 0.77 90 1014.7
20260905022840 79 216 0.0 0.0 0.00 0.77 0.77 90 1014.6
20260905022336 80 216 0.0 0.0 0.00 0.77 0.77 90 1014.6
20260905021835 80 216 0.0 0.0 0.00 0.77 0.77 89 1014.6
20260905021331 80 216 0.0 0.0 0.00 0.77 0.77 88 1014.5
20260905020826 80 216 0.0 0.0 0.00 0.77 0.77 87 1014.4
20260905020321 81 216 0.0 0.0 0.00 0.77 0.77 87 1014.3
20260905015820 81 202 0.0 1.0 0.00 0.77 0.77 86 1014.2
20260905015319 81 201 0.0 2.0 0.00 0.77 0.77 87 1014.3
20260905014819 81 203 1.0 1.0 0.00 0.77 0.77 87 1014.2
20260905014314 80 166 0.0 0.0 0.00 0.77 0.77 88 1014.1
20260905013809 80 203 0.0 0.0 0.00 0.77 0.77 90 1014.2
20260905013306 80 217 0.0 0.0 0.00 0.77 0.77 91 1014.2
20260905012801 80 224 0.0 1.0 0.00 0.77 0.77 91 1014.0
20260905012256 80 206 0.0 0.0 0.00 0.77 0.77 90 1014.0
20260905011753 81 205 0.0 0.0 0.00 0.77 0.77 89 1014.0
20260905011248 81 206 0.0 0.0 0.00 0.77 0.77 88 1013.9
20260905010743 82 206 0.0 0.0 0.00 0.77 0.77 88 1013.8
20260905010238 82 205 0.0 0.0 0.00 0.77 0.77 87 1013.8
20260905005735 82 205 0.0 0.0 0.00 0.77 0.77 86 1013.6
20260905005230 82 205 0.0 0.0 0.00 0.77 0.77 85 1013.6
20260905004724 83 213 0.0 0.0 0.00 0.77 0.77 84 1013.9
20260905004220 83 216 0.0 0.0 0.00 0.77 0.77 83 1013.6
20260905003720 83 214 0.0 0.0 0.00 0.77 0.77 83 1013.7
20260905003216 83 201 0.0 0.0 0.00 0.77 0.77 82 1013.3
20260905002711 84 205 0.0 0.0 0.00 0.77 0.77 82 1013.3
20260905002211 84 205 0.0 1.0 0.00 0.77 0.77 81 1013.4
20260905001706 84 190 1.0 2.0 0.00 0.77 0.77 81 1013.3
20260905001205 84 266 1.0 2.0 0.00 0.77 0.77 81 1013.3
20260905000700 85 230 0.0 1.0 0.00 0.77 0.77 82 1013.3
20260905000156 85 225 0.0 1.0 0.00 0.77 0.77 81 1013.3
20260904235656 85 218 0.0 1.0 0.00 0.77 0.77 82 1013.4
20260904235156 85 218 0.0 0.0 0.00 0.77 0.77 82 1013.4
20260904234651 84 212 0.0 0.0 0.00 0.77 0.77 83 1013.4
20260904234147 84 246 0.0 2.0 0.00 0.77 0.77 83 1013.4
20260904233642 84 192 0.0 0.0 0.00 0.77 0.77 83 1013.6
20260904233138 84 259 0.0 2.0 0.00 0.77 0.77 82 1013.5
20260904232635 85 194 1.0 1.0 0.00 0.77 0.77 82 1013.6
20260904232131 85 224 1.0 1.0 0.00 0.77 0.77 82 1013.6
20260904231626 85 201 0.0 0.0 0.00 0.77 0.77 84 1013.4
20260904231120 85 242 0.0 0.0 0.00 0.77 0.77 83 1013.3
20260904230615 85 243 0.0 0.0 0.00 0.77 0.77 82 1013.1
20260904230110 85 233 0.0 0.0 0.00 0.77 0.77 83 1013.4
20260904225608 85 233 0.0 0.0 0.00 0.77 0.77 83 1013.4
20260904225103 86 233 0.0 0.0 0.00 0.77 0.77 81 1013.2
20260904224557 87 195 0.0 0.0 0.00 0.77 0.77 77 1013.4
20260904224052 87 221 0.0 0.0 0.00 0.77 0.77 77 1013.6
20260904223551 87 221 0.0 1.0 0.00 0.77 0.77 76 1013.4
20260904223047 88 194 0.0 0.0 0.00 0.77 0.77 74 1013.5
20260904222542 88 200 1.0 1.0 0.00 0.77 0.77 74 1013.6
20260904222037 89 214 0.0 0.0 0.00 0.77 0.77 72 1013.6
20260904221533 89 221 0.0 1.0 0.00 0.77 0.77 72 1013.6
20260904221032 89 222 0.0 2.0 0.00 0.77 0.77 71 1013.7
20260904220532 89 195 0.0 1.0 0.00 0.77 0.77 71 1013.6
20260904220028 89 188 2.0 3.0 0.00 0.77 0.77 70 1013.8
20260904215528 89 221 0.0 2.0 0.00 0.77 0.77 70 1013.7
20260904215024 89 183 2.0 2.0 0.00 0.77 0.77 70 1013.8
20260904214519 89 236 1.0 2.0 0.00 0.77 0.77 73 1013.7
20260904214014 89 226 2.0 3.0 0.00 0.77 0.77 71 1013.7
20260904213513 89 204 0.0 0.0 0.00 0.77 0.77 74 1013.7
20260904213010 89 231 1.0 2.0 0.00 0.77 0.77 73 1013.8
20260904212509 89 195 1.0 2.0 0.00 0.77 0.77 74 1013.8
20260904212004 89 244 0.0 0.0 0.00 0.77 0.77 75 1013.9
20260904211504 89 220 0.0 1.0 0.00 0.77 0.77 73 1014.1
20260904211000 89 219 0.0 1.0 0.00 0.77 0.77 73 1013.9
20260904210458 89 217 0.0 2.0 0.00 0.77 0.77 74 1014.0
20260904205954 90 235 0.0 2.0 0.00 0.77 0.77 73 1014.0
20260904205449 89 219 1.0 2.0 0.00 0.77 0.77 74 1014.3
20260904204947 88 222 0.0 2.0 0.00 0.77 0.77 77 1014.6
20260904204442 88 232 0.0 2.0 0.00 0.77 0.77 75 1014.5
20260904203938 86 220 0.0 0.0 0.00 0.77 0.77 80 1014.7
20260904203434 85 243 0.0 2.0 0.00 0.77 0.77 86 1014.6
20260904202930 83 255 0.0 0.0 0.00 0.77 0.77 89 1014.8
20260904202426 82 226 0.0 0.0 0.00 0.77 0.77 89 1015.1
20260904201922 82 226 0.0 0.0 0.00 0.77 0.77 88 1015.0
20260904201417 82 208 0.0 0.0 0.00 0.77 0.77 90 1015.0
20260904200912 81 208 0.0 0.0 0.00 0.77 0.77 92 1014.9
20260904200410 81 208 0.0 1.0 0.00 0.77 0.77 92 1015.1
20260904195906 80 220 0.0 1.0 0.00 0.77 0.77 92 1015.1
20260904195403 80 220 1.0 2.0 0.00 0.77 0.77 93 1015.0
20260904194858 79 220 1.0 1.0 0.00 0.77 0.77 94 1015.0
20260904194358 79 248 0.0 0.0 0.00 0.77 0.77 97 1015.0
20260904193853 78 248 0.0 1.0 0.00 0.77 0.77 98 1015.1
20260904193348 78 248 1.0 1.0 0.00 0.77 0.77 98 1014.9
20260904192844 78 243 1.0 3.0 0.00 0.77 0.77 98 1014.9
20260904192339 78 197 0.0 1.0 0.00 0.77 0.77 98 1015.2
20260904191836 77 199 0.0 1.0 0.00 0.77 0.77 98 1015.3
20260904191332 77 236 1.0 1.0 0.00 0.77 0.77 99 1015.2
20260904190828 77 221 0.0 0.0 0.00 0.77 0.77 99 1015.4
20260904190324 77 221 0.0 0.0 0.00 0.77 0.77 99 1015.4
20260904185820 77 239 0.0 1.0 0.00 0.77 0.77 99 1015.5
20260904185315 77 225 0.0 1.0 0.00 0.77 0.77 99 1015.8
20260904184815 77 202 0.0 1.0 0.00 0.77 0.77 99 1015.9
20260904184310 77 237 1.0 2.0 0.00 0.77 0.77 99 1016.0
20260904183805 76 209 0.0 2.0 0.00 0.77 0.77 99 1016.2
20260904183306 76 220 0.0 0.0 0.00 0.77 0.77 99 1016.1
20260904182801 76 219 0.0 2.0 0.00 0.77 0.77 99 1016.3
20260904182255 75 236 0.0 1.0 0.00 0.77 0.77 98 1016.4
20260904181751 75 236 1.0 1.0 0.00 0.77 0.77 99 1016.5
20260904181251 75 223 2.0 3.0 0.00 0.77 0.77 98 1016.6
20260904180747 75 242 0.0 0.0 0.05 0.77 0.77 98 1016.4
20260904180242 75 243 1.0 2.0 0.24 0.77 0.77 98 1016.3
20260904175741 75 278 2.0 2.0 0.61 0.76 0.76 98 1016.5
20260904175239 75 216 2.0 4.0 1.25 0.73 0.73 98 1016.5
20260904174734 75 259 5.0 7.0 2.17 0.65 0.65 97 1016.8
20260904174230 76 229 3.0 6.0 1.56 0.45 0.45 96 1017.4
20260904173726 77 199 3.0 8.0 0.28 0.23 0.23 95 1017.7
20260904173226 77 213 2.0 4.0 0.24 0.19 0.19 93 1017.2
20260904172723 78 219 1.0 1.0 1.04 0.18 0.18 91 1017.0
20260904172221 82 269 1.0 2.0 0.66 0.12 0.12 85 1016.8
20260904171717 83 234 0.0 2.0 0.00 0.01 0.01 77 1016.6
20260904171212 83 239 1.0 1.0 0.00 0.01 0.01 77 1016.5
20260904170708 84 242 0.0 3.0 0.00 0.01 0.01 77 1016.5
20260904170204 85 230 1.0 7.0 0.00 0.01 0.01 76 1016.5
20260904165703 89 265 3.0 6.0 0.00 0.01 0.01 72 1016.6
20260904165202 91 265 3.0 3.0 0.00 0.01 0.01 74 1016.5
20260904164657 92 266 2.0 2.0 0.00 0.01 0.01 70 1016.2
20260904164152 93 183 0.0 4.0 0.00 0.01 0.01 67 1016.3
20260904163648 93 169 3.0 4.0 0.00 0.01 0.01 66 1016.4
20260904163143 93 223 2.0 3.0 0.00 0.01 0.01 71 1016.4
20260904162642 91 221 0.0 2.0 0.00 0.01 0.01 74 1016.3
20260904162137 89 194 1.0 3.0 0.00 0.01 0.01 75 1016.3
20260904161633 91 281 1.0 3.0 0.00 0.01 0.01 74 1016.1
20260904161129 91 203 1.0 3.0 0.00 0.01 0.01 74 1016.0
20260904160624 92 189 0.0 3.0 0.00 0.01 0.01 73 1016.0
20260904160120 91 216 2.0 2.0 0.00 0.01 0.01 76 1015.8
20260904155614 90 330 3.0 4.0 0.00 0.01 0.01 77 1015.9
20260904155108 91 292 2.0 2.0 0.00 0.01 0.01 75 1016.0
20260904154601 90 225 1.0 2.0 0.00 0.01 0.01 76 1015.8
20260904154056 90 210 0.0 3.0 0.00 0.01 0.01 75 1016.0
20260904153555 90 173 1.0 2.0 0.00 0.01 0.01 77 1015.9
20260904153052 89 222 0.0 2.0 0.00 0.01 0.01 79 1016.0
20260904152548 89 206 0.0 1.0 0.00 0.01 0.01 80 1015.9
20260904152043 89 157 0.0 3.0 0.00 0.01 0.01 79 1015.8
20260904151538 89 214 1.0 2.0 0.00 0.01 0.01 83 1016.0
20260904151038 88 302 0.0 2.0 0.00 0.01 0.01 84 1015.9
20260904150538 88 214 2.0 3.0 0.00 0.01 0.01 84 1015.9
20260904150033 88 249 1.0 3.0 0.00 0.01 0.01 84 1015.9
20260904145532 88 191 0.0 2.0 0.00 0.01 0.01 84 1015.7
20260904145027 87 176 0.0 0.0 0.00 0.01 0.01 85 1015.8
20260904144523 87 203 0.0 1.0 0.00 0.01 0.01 85 1015.8
20260904144019 87 197 0.0 2.0 0.00 0.01 0.01 86 1015.9
20260904143514 86 167 0.0 2.0 0.00 0.01 0.01 87 1015.9
20260904143012 86 245 1.0 2.0 0.00 0.01 0.01 87 1015.8
20260904142508 86 210 0.0 2.0 0.00 0.01 0.01 87 1015.8
20260904142007 86 173 0.0 0.0 0.00 0.01 0.01 88 1015.7
20260904141502 85 217 1.0 2.0 0.00 0.01 0.01 90 1015.9
20260904140959 84 218 0.0 2.0 0.00 0.01 0.01 91 1015.8
20260904140459 83 218 0.0 2.0 0.00 0.01 0.01 93 1015.8
20260904135957 82 74 1.0 2.0 0.00 0.01 0.01 96 1015.6
20260904135452 81 46 0.0 0.0 0.00 0.01 0.01 99 1015.8
20260904134949 81 184 0.0 2.0 0.00 0.01 0.01 99 1015.7
20260904134448 80 218 0.0 1.0 0.00 0.01 0.01 99 1015.4
20260904133943 80 192 0.0 1.0 0.00 0.01 0.01 99 1015.7
20260904133438 79 203 0.0 0.0 0.00 0.01 0.01 99 1015.5
20260904132933 79 203 0.0 0.0 0.00 0.01 0.01 99 1015.6
20260904132428 79 213 0.0 0.0 0.00 0.01 0.01 99 1015.4
20260904131928 79 251 0.0 2.0 0.00 0.01 0.01 99 1015.5
20260904131423 78 190 0.0 1.0 0.00 0.01 0.01 99 1015.5
20260904130919 79 191 0.0 0.0 0.00 0.01 0.01 99 1015.3
20260904130418 78 190 0.0 0.0 0.00 0.01 0.01 99 1015.4
20260904125913 78 190 0.0 1.0 0.00 0.01 0.01 99 1015.5
20260904125410 78 202 0.0 0.0 0.00 0.01 0.01 99 1015.3
20260904124908 78 203 0.0 0.0 0.00 0.01 0.01 99 1015.3
20260904124405 78 202 0.0 0.0 0.00 0.01 0.01 99 1015.1
20260904123901 78 203 0.0 0.0 0.00 0.01 0.01 99 1014.9
20260904123355 78 203 0.0 0.0 0.00 0.01 0.01 99 1015.1
20260904122851 78 203 0.0 0.0 0.00 0.01 0.01 99 1014.9
20260904122350 78 203 0.0 0.0 0.00 0.01 0.01 99 1014.9
20260904121845 78 230 0.0 0.0 0.00 0.01 0.01 99 1014.9
20260904121342 78 218 0.0 0.0 0.00 0.01 0.01 99 1014.8
20260904120837 78 237 0.0 0.0 0.00 0.01 0.01 99 1014.7
20260904120333 78 237 0.0 0.0 0.00 0.01 0.01 99 1014.6
20260904115828 78 237 0.0 0.0 0.00 0.01 0.01 99 1014.6
20260904115323 78 238 0.0 0.0 0.00 0.01 0.01 99 1014.8
20260904114823 77 209 0.0 0.0 0.00 0.01 0.01 99 1014.7
20260904114318 77 212 0.0 0.0 0.00 0.01 0.01 99 1014.7
20260904113813 77 192 0.0 0.0 0.00 0.01 0.01 99 1014.7
20260904113312 77 191 0.0 0.0 0.00 0.01 0.01 99 1014.7
20260904112807 78 191 0.0 0.0 0.00 0.01 0.01 99 1014.6
20260904112305 78 192 0.0 0.0 0.00 0.01 0.01 99 1014.6
20260904111758 78 191 0.0 0.0 0.00 0.01 0.01 99 1014.5
20260904111254 78 192 0.0 0.0 0.00 0.01 0.01 99 1014.6
20260904110749 78 192 0.0 0.0 0.00 0.01 0.01 99 1014.5
20260904110248 78 192 0.0 0.0 0.00 0.01 0.01 99 1014.5
20260904105744 78 192 0.0 0.0 0.00 0.01 0.01 99 1014.5
20260904105238 78 192 0.0 0.0 0.00 0.01 0.01 99 1014.4
20260904104733 78 190 0.0 1.0 0.00 0.01 0.01 99 1014.3
20260904104229 78 203 0.0 0.0 0.00 0.01 0.01 99 1014.4
20260904103726 78 204 0.0 0.0 0.00 0.01 0.01 99 1014.1
20260904103220 78 204 0.0 0.0 0.00 0.01 0.01 99 1014.2
20260904102716 78 204 0.0 0.0 0.00 0.01 0.01 99 1014.3
20260904102211 78 204 0.0 0.0 0.00 0.01 0.01 99 1014.2
20260904101708 78 203 0.0 0.0 0.05 0.01 0.01 99 1014.2
20260904101203 78 203 0.0 0.0 0.05 0.01 0.01 99 1014.1
20260904100659 78 203 0.0 0.0 0.00 0.00 0.00 99 1014.2
20260904100155 78 203 0.0 0.0 0.00 0.00 0.00 99 1014.2
20260904095654 78 203 0.0 0.0 0.00 0.00 0.00 99 1014.2
20260904095148 78 203 0.0 0.0 0.00 0.00 0.00 99 1014.2
20260904094644 78 203 0.0 0.0 0.00 0.00 0.00 99 1014.2
20260904094139 78 203 0.0 0.0 0.00 0.00 0.00 99 1014.0
20260904093636 78 203 0.0 0.0 0.00 0.00 0.00 99 1014.2
20260904093135 78 203 0.0 0.0 0.00 0.00 0.00 99 1014.1
20260904092631 78 203 0.0 0.0 0.00 0.00 0.00 99 1013.9
20260904092127 78 203 0.0 0.0 0.00 0.00 0.00 99 1013.9
20260904091623 78 203 0.0 0.0 0.00 0.00 0.00 99 1013.9
20260904091123 78 203 0.0 0.0 0.00 0.00 0.00 99 1013.9
20260904090618 78 203 0.0 0.0 0.00 0.00 0.00 99 1013.8
20260904090114 78 203 0.0 0.0 0.00 0.00 0.00 99 1013.8
20260904085609 78 208 0.0 0.0 0.00 0.00 0.00 99 1013.8
20260904085108 78 208 0.0 0.0 0.00 0.00 0.00 99 1013.9
20260904084604 78 208 0.0 0.0 0.00 0.00 0.00 99 1014.0
20260904084101 78 191 0.0 0.0 0.00 0.00 0.00 99 1013.9
20260904083556 78 192 0.0 0.0 0.00 0.00 0.00 99 1014.0
20260904083052 78 192 0.0 0.0 0.00 0.00 0.00 99 1013.9
20260904082547 78 212 0.0 0.0 0.00 0.00 0.00 99 1013.7
20260904082042 78 212 0.0 0.0 0.00 0.00 0.00 99 1013.9
20260904081537 78 212 0.0 0.0 0.00 0.00 0.00 99 1013.9
20260904081033 78 212 0.0 0.0 0.00 0.00 0.00 99 1014.0
20260904080528 78 212 0.0 0.0 0.00 0.00 0.00 99 1014.0
20260904080024 78 212 0.0 0.0 0.00 0.00 0.00 99 1014.0
20260904075519 78 212 0.0 0.0 0.00 0.00 0.00 99 1013.9
20260904075014 78 212 0.0 0.0 0.00 0.00 0.00 99 1014.1
20260904074508 78 212 0.0 0.0 0.00 0.00 0.00 99 1013.9
20260904074003 78 212 0.0 0.0 0.00 0.00 0.00 99 1014.1
20260904073453 78 212 0.0 0.0 0.00 0.00 0.00 99 1014.2
20260904072949 78 212 0.0 0.0 0.00 0.00 0.00 99 1014.2
20260904072445 78 212 0.0 0.0 0.00 0.00 0.00 99 1014.3
20260904071944 78 212 0.0 0.0 0.00 0.00 0.00 99 1014.4
20260904071440 79 212 0.0 0.0 0.00 0.00 0.00 99 1014.4
20260904070935 79 212 0.0 0.0 0.00 0.00 0.00 99 1014.4
20260904070434 79 211 0.0 0.0 0.00 0.00 0.00 99 1014.3
20260904065934 78 211 0.0 0.0 0.00 0.00 0.00 99 1014.3
20260904065430 79 211 0.0 0.0 0.00 0.00 0.00 99 1014.4
20260904064925 79 211 0.0 0.0 0.00 0.00 0.00 99 1014.3
20260904064421 78 211 0.0 0.0 0.00 0.00 0.00 99 1014.4
20260904063916 78 211 0.0 0.0 0.00 0.00 0.00 99 1014.5
20260904063413 78 211 0.0 0.0 0.00 0.00 0.00 99 1014.3
20260904062912 78 211 0.0 0.0 0.00 0.00 0.00 99 1014.3
20260904062409 78 211 0.0 0.0 0.00 0.00 0.00 99 1014.4
20260904061905 78 211 0.0 0.0 0.00 0.00 0.00 99 1014.4
20260904061401 78 211 0.0 0.0 0.00 0.00 0.00 99 1014.4
20260904060857 78 211 0.0 0.0 0.00 0.00 0.00 99 1014.4